Location: Newark
(34.6283°N, 36.0776°E)
Time: 22:06:05
(UTC+00:00)

Tiros 1 despin weight - Pass Details

Date: 20 September 2019
Orbit: 594 x 643 km, 48.2° (Epoch: 15 October)

Event Time Altitude Azimuth Distance (km) Brightness Sun altitude
Rises 12:24:05 0° 298° (WNW) 2,865 ? 37.3°
Reaches altitude 10° 12:27:26 10° 324° (NW) 1,950 ? 36.7°
Maximum altitude 12:29:49 14° 356° (N) 1,689 ? 36.2°
Drops below altitude 10° 12:32:12 10° 29° (NNE) 1,938 ? 35.8°
Sets 12:35:31 0° 55° (NE) 2,833 ? 35.2°
